Location: Albany
(35.0000°S, 118.0000°E)
Time: 10:39:31
(UTC-04:00)

JAS-1B - Pass Details

Date: 19 February 2018
Orbit: 912 x 1743 km, 99.1° (Epoch: 18 June)

Event Time Altitude Azimuth Distance (km) Brightness Sun altitude
Rises 12:42:18 0° 183° (S) 4,429 11.1 -40.1°
Reaches altitude 10° 12:45:42 10° 197° (SSW) 3,579 10.3 -39.8°
Enters shadow 12:51:36 22° 241° (WSW) 2,958 9.4 -39.2°
